This is the latest recevied weather packets stored in our database for station/object DK8HC-WX. If no packets are shown the sender has not sent any weather packets the latest 10 day(s).
| Time | Temp. | Humidity | Pressure | Rain* | Wind** | Luminosity | Snow |
|---|---|---|---|---|---|---|---|
| 1777837307 | 18.89° C | 94% | 1012.6 hPa | - | - | - | - |
| 1777836706 | 18.89° C | 92% | 1012.5 hPa | - | - | - | - |
| 1777836106 | 18.89° C | 89% | 1012.3 hPa | - | - | - | - |
| 1777835506 | 19.44° C | 84% | 1012.2 hPa | - | - | - | - |
| 1777834906 | 19.44° C | 79% | 1012.1 hPa | - | - | - | - |
| 1777834306 | 19.44° C | 74% | 1012.1 hPa | - | - | - | - |
| 1777833706 | 20° C | 69% | 1012 hPa | - | - | - | - |
| 1777833106 | 20° C | 66% | 1012 hPa | - | - | - | - |
| 1777832506 | 20.56° C | 64% | 1011.9 hPa | - | - | - | - |
| 1777831906 | 20.56° C | 59% | 1011.9 hPa | - | - | - | - |
| 1777831306 | 21.11° C | 55% | 1011.9 hPa | - | - | - | - |
| 1777830706 | 22.22° C | 50% | 1011.7 hPa | - | - | - | - |
| 1777830106 | 22.22° C | 49% | 1011.6 hPa | - | - | - | - |
| 1777829506 | 22.78° C | 49% | 1011.6 hPa | - | - | - | - |
| 1777828906 | 22.22° C | 51% | 1011.7 hPa | - | - | - | - |
| 1777828306 | 22.22° C | 50% | 1011.6 hPa | - | - | - | - |
| 1777827706 | 22.78° C | 48% | 1011.5 hPa | - | - | - | - |
| 1777827106 | 22.22° C | 46% | 1011.4 hPa | - | - | - | - |
| 1777826506 | 22.78° C | 47% | 1011.5 hPa | - | - | - | - |
| 1777825905 | 23.33° C | 44% | 1011.6 hPa | - | - | - | - |
| 1777824706 | 23.33° C | 41% | 1011.6 hPa | - | - | - | - |
| 1777824106 | 23.33° C | 39% | 1011.6 hPa | - | - | - | - |
| 1777823505 | 23.89° C | 37% | 1011.8 hPa | - | - | - | - |
| 1777822905 | 24.44° C | 36% | 1011.7 hPa | - | - | - | - |
| 1777822306 | 25.56° C | 35% | 1011.9 hPa | - | - | - | - |
* Rain since midnight (hover to see other rain measurements)
** Current wind speed in m/s (hover to see current wind gust speed)